Regional Weather Roundup
Issued by NWS

Home | Current Version | Previous Version | Graphics & Text | Print | Product List | Glossary On
Versions: 1 2 3 4 5 6 7 8 9 10 11 12 13 14 15 16 17 18 19 20 21 22 23 24 25 26 27 28 29 30 31 32 33 34 35 36 37 38 39 40 41 42 43 44 45 46 47 48 49 50
000
ASUS43 KLOT 300810
RWRIL

ILLINOIS REGIONAL WEATHER ROUNDUP
NATIONAL WEATHER SERVICE CHICAGO/ROMEOVILLE IL
200 AM CST FRI JAN 30 2015

NOTE: "FAIR" INDICATES FEW OR NO CLOUDS BELOW 12,000 FEET WITH NO
SIGNIFICANT WEATHER AND/OR OBSTRUCTIONS TO VISIBILITY.

* THESE STATIONS ARE NOT UNDER NWS QUALITY CONTROL. THEY ALSO MAY NOT
  REPORT WEATHER SUCH AS PRECIPITATION OR FOG.

ILZ001-002-007-009-015-016-024-300900-
NORTHWEST ILLINOIS

CITY           SKY/WX    TMP DP  RH WIND       PRES   REMARKS
MOLINE         CLEAR     24  16  71 NW12      30.47R WCI  13
STERLING*      CLEAR     25  14  63 NW9       30.43R WCI  15
SAVANNA*       PTCLDY    26  14  62 NW9       30.45R WCI  16
$$

ILZ003-004-008-010-011-017-018-300900-
NORTH CENTRAL ILLINOIS

CITY           SKY/WX    TMP DP  RH WIND       PRES   REMARKS
ROCKFORD       CLOUDY    27  13  55 N13       30.42R WCI  16
FREEPORT*      CLOUDY    25  14  63 NW10      30.43R WCI  14
ROCHELLE*      PTCLDY    26  18  70 NW13G20   30.41R WCI  15
DE KALB*       PTCLDY    23  16  74 N13       30.39R WCI  11
PERU*          PTCLDY    26  19  77 NW13      30.42R WCI  15
$$

ILZ005-006-012>014-019>023-300900-
NORTHEAST ILLINOIS

CITY           SKY/WX    TMP DP  RH WIND       PRES   REMARKS
CHICAGO-OHARE  CLOUDY    26  12  55 N12       30.37R WCI  16
CHICAGO-MIDWAY CLOUDY    30  15  53 N16       30.37R WCI  19
AURORA         MOCLDY    27  16  63 N14       30.39R WCI  16
LANSING*       CLOUDY    29  17  63 N15G22    30.36R WCI  17
JOLIET*        PTCLDY    27  19  71 N8        30.39R WCI  19
WAUKEGAN       CLOUDY    24   8  50 N9        30.37R WCI  14
DUPAGE AIRPORT CLOUDY    27  16  63 N15       30.38R WCI  15
KANKAKEE*      CLEAR     30  19  62 NW10      30.36R WCI  21
WHEELING       CLOUDY    26   9  48 N15       30.39R WCI  14
MORRIS*        PTCLDY    28  19  71 N9        30.38R WCI  19
ROMEOVILLE*    FLURRIES  28  18  66 N15G21    30.37R WCI  16
NORTHERLY ISL    N/A     28  13  53 N21         N/A  WCI  15
$$

LMZ740>746-300900-
SOUTHERN LAKE MICHIGAN

STATION/POSITION SKY/WX   TEMP    WIND        PRES    VSBY  WAVE
                          AIR SEA DIR/SP/G                  HT/PER
                          (F)     (DEG/KT/KT) (MB)    (MI)  (FT/S)
WAUKEGAN HARBOR            26     350/ 16/ 24   N/A
HARRISON CRIB              27     350/ 28/ 32   N/A
BURNHAM HARBOR             27      90/ 12/ 23   N/A
CALUMET HARBOR             28     330/ 16/ 25   N/A
MICHIGAN CITY              29     340/ 28/ 31   N/A
$$

ILZ025>027-034>036-040-047-049-050-058-095>099-300900-
WEST-CENTRAL ILLINOIS

CITY           SKY/WX    TMP DP  RH WIND       PRES   REMARKS
QUINCY         CLOUDY    28  18  66 N14       30.49R WCI  17
GALESBURG*     CLEAR     25  20  81 NW13      30.46R WCI  13
MACOMB*        PTCLDY    26  20  78 NW13      30.51R WCI  15
JACKSONVILLE*  CLOUDY    31  22  66 NW15      30.47R WCI  21
PITTSFIELD*    CLOUDY    30  22  71 NW17      30.49R WCI  18
$$

ILZ028>032-037-038-041>044-048-051>054-059>061-300900-
CENTRAL ILLINOIS

CITY           SKY/WX    TMP DP  RH WIND       PRES   REMARKS
PONTIAC        CLOUDY    31  23  72 NW17      30.40R WCI  19
BLOOMINGTON    MOCLDY    30  20  66 NW20      30.40R WCI  17
DECATUR        CLOUDY    32  20  61 NW16G22   30.41R WCI  21
PEORIA         CLEAR     29  18  63 NW8       30.44R WCI  21
LACON*         CLEAR     27  18  69 NW8       30.43R WCI  19
LINCOLN*       CLOUDY    32  23  69 NW8       30.45R WCI  25
SPRINGFIELD    CLOUDY    32  21  64 N16G25    30.45R WCI  21
TAYLORVILLE    CLOUDY    32  25  74 NW17G24   30.44R WCI  21
$$

ILZ033-039-045-046-055>057-062-063-300900-
EAST-CENTRAL ILLINOIS

CITY           SKY/WX    TMP DP  RH WIND       PRES   REMARKS
CHAMPAIGN      CLOUDY    32  24  72 NW20      30.37R WCI  20
DANVILLE*      CLOUDY    32  26  80 NW14      30.31R WCI  22
RANTOUL*       CLOUDY    33  27  77 NW15      30.36R WCI  23
MATTOON        CLOUDY    32  23  69 NW17      30.37R WCI  21
PARIS*         CLOUDY    33  29  85 NW15      30.36R WCI  23
$$

ILZ079-100>102-300900-
SOUTHWEST ILLINOIS

CITY           SKY/WX    TMP DP  RH WIND       PRES   REMARKS
ALTON          CLOUDY    32  21  63 NW12G21   30.47R WCI  23
BELLEVILLE     CLOUDY    34  24  66 NW10      30.45R WCI  26
CAHOKIA*       CLOUDY    35  24  64 NW16      30.47R WCI  25
SPARTA*        CLOUDY    34  25  69 NW8       30.46R WCI  27
$$

ILZ064>066-069>071-074>076-080>082-084>086-088>090-092>094-300900-
SOUTH-CENTRAL ILLINOIS

CITY           SKY/WX    TMP DP  RH WIND       PRES   REMARKS
CARBONDALE     CLOUDY    35  24  64 N13       30.44R WCI  26
CAIRO*         CLOUDY    39  28  63 N10G16    30.44R WCI  32
EFFINGHAM*     CLOUDY    33  23  65 NW10      30.42R WCI  25
MARION         CLOUDY    36  27  69 NW8       30.44R WCI  29
MT. VERNON     CLOUDY    34  21  60 N5        30.43R WCI  30
CENTRALIA*     CLOUDY    33  24  67 NW14G21   30.43R WCI  24
SALEM*         CLOUDY    35  24  65 NW16G25   30.42R WCI  25
METROPOLIS*    CLOUDY    37  28  71 N10       30.42R WCI  29
$$

ILZ067-068-072-073-078-083-087-091-300900-
SOUTHEAST ILLINOIS

CITY           SKY/WX    TMP DP  RH WIND       PRES   REMARKS
LAWRENCEVILLE  CLOUDY    34  26  72 NW14      30.38R WCI  25
FLORA*         CLOUDY    33  25  70 NW16      30.41R WCI  23
FAIRFIELD*     CLOUDY    35  26  69 NW5       30.41R WCI  31
HARRISBURG*    CLOUDY    35  26  70 NW8       30.43R WCI  29
ROBINSON*      CLOUDY    34  27  77 NW12      30.38R WCI  25
CARMI*         CLOUDY    37  29  74 NW14      30.40S WCI  28
$$

ABBREVIATIONS USED IN REMARKS
   TC - TEMPERATURE IN CELSIUS
  WCI - WIND CHILL INDEX
   HX - HEAT INDEX
  VSB - VISIBILITY
$$



USA.gov is the U.S. government's official web portal to all federal, state and local government web resources and services.